Weather History for Coolangatta Airport Aws, Queensland

Change the Weather History Date:

Monday, June 17, 2013

  Actual Average Record
Temperature  
Mean Temperature 56 °F -  
Max Temperature 68 °F - - ()
Min Temperature 43 °F - - ()
Degree Days  
Heating Degree Days 10    
Growing Degree Days 6 (Base 50)    
Moisture  
Dew Point 46 °F    
Average Humidity 75    
Maximum Humidity 100    
Minimum Humidity 28    
Precipitation  
Precipitation 0.01 in - - ()
Sea Level Pressure  
Sea Level Pressure 29.81 in    
Wind  
Wind Speed 4 mph ()    
Max Wind Speed 7 mph    
Max Gust Speed -    
Visibility 6.2 miles    
Events      
T = Trace of Precipitation, MM = Missing Value Source: Averaged Metar Reports

Daily Weather History Graph

Daily Weather History Graph

Search for Another Location

Airport:

Trip Planner

Search our weather history database for the weather conditions in past years. The results will help you decide how hot, cold, wet, or windy it might be!

Date:

Astronomy

Jun. 17, 2013 Rise Set
Actual Time 6:36 AM AEST 4:57 PM AEST
Civil Twilight 6:10 AM AEST 5:23 PM AEST
Nautical Twilight 5:40 AM AEST 5:52 PM AEST
Astronomical Twilight 5:12 AM AEST 6:21 PM AEST
Moon 11:52 AM AEST (6/17) No Moon Set
Length of Visible Light 11h 13m
Length of Day
10h 21m
First Quarter, 54% of the Moon is Illuminated
Jun 17
First Quarter
Jun 23
Full
Jun 30
Last Quarter
Jul 8
New
Jul 16
First Quarter

Hourly Weather History & Observations

Time (AEST) Temp. Windchill Dew Point Humidity Pressure Visibility Wind Dir Wind Speed Gust Speed Precip Events Conditions
12:00 AM 48 °F - 46 °F 90% 29.87 in - SW 3.5 mph - -  
12:00 AM 48.2 °F - 46.4 °F 93% 29.86 in 6.2 mi SW 3.5 mph - N/A   Unknown
12:30 AM 48.2 °F - 48.2 °F 100% 29.86 in 6.2 mi SSW 4.6 mph - N/A   Unknown
1:00 AM 48.2 °F - 44.6 °F 87% 29.83 in 6.2 mi SW 4.6 mph - N/A   Unknown
1:30 AM 48.2 °F - 46.4 °F 93% 29.83 in 6.2 mi SW 4.6 mph - N/A   Unknown
2:00 AM 48.2 °F - 46.4 °F 93% 29.83 in 6.2 mi SW 4.6 mph - N/A   Unknown
2:30 AM 48.2 °F - 46.4 °F 93% 29.83 in 6.2 mi SW 6.9 mph - N/A   Unknown
3:00 AM 48 °F - 46 °F 90% 29.84 in - SW 2.3 mph - -  
3:00 AM 48.2 °F - 46.4 °F 93% 29.83 in 6.2 mi SW 2.3 mph - N/A   Unknown
3:30 AM 44.6 °F 43.1 °F 42.8 °F 93% 29.83 in 6.2 mi WNW 3.5 mph - N/A   Unknown
4:00 AM 44.6 °F 42.2 °F 42.8 °F 93% 29.83 in 6.2 mi WSW 4.6 mph - N/A   Unknown
4:30 AM 42.8 °F 41.1 °F 41.0 °F 93% 29.83 in 6.2 mi West 3.5 mph - N/A   Unknown
5:00 AM 44.6 °F 42.2 °F 42.8 °F 93% 29.83 in 6.2 mi WSW 4.6 mph - N/A   Unknown
5:30 AM 44.6 °F - 44.6 °F 100% 29.83 in 6.2 mi WSW 2.3 mph - N/A   Unknown
6:00 AM 45 °F - 44 °F 95% 29.83 in - SW 2.3 mph - -  
6:00 AM 44.6 °F - 44.6 °F 100% 29.83 in 6.2 mi SW 2.3 mph - N/A   Unknown
6:30 AM 44.6 °F - 42.8 °F 93% 29.83 in 6.2 mi SW 2.3 mph - N/A   Unknown
7:00 AM 46.4 °F - 44.6 °F 93% 29.83 in 6.2 mi WSW 2.3 mph - N/A   Unknown
7:30 AM 48.2 °F - 46.4 °F 93% 29.83 in 6.2 mi SW 3.5 mph - N/A   Unknown
8:00 AM 50.0 °F - 46.4 °F 87% 29.86 in 6.2 mi SW 1.2 mph - N/A   Unknown
8:30 AM 53.6 °F - 50.0 °F 88% 29.86 in 6.2 mi SW 2.3 mph - N/A   Unknown
9:00 AM 59 °F - 51 °F 67% 29.86 in - Calm Calm - -  
9:00 AM 59.0 °F - 51.8 °F 77% 29.86 in 6.2 mi Calm Calm - N/A   Unknown
9:30 AM 62.6 °F - 46.4 °F 55% 29.83 in 6.2 mi ESE 3.5 mph - N/A   Unknown
10:00 AM 64.4 °F - 48.2 °F 56% 29.83 in 6.2 mi ESE 2.3 mph - N/A   Unknown
10:30 AM 64.4 °F - 46.4 °F 52% 29.83 in 6.2 mi NNE 5.8 mph - N/A   Unknown
11:00 AM 66.2 °F - 44.6 °F 46% 29.83 in 6.2 mi NE 5.8 mph - N/A   Unknown
11:30 AM 68.0 °F - 46.4 °F 46% 29.80 in 6.2 mi North 5.8 mph - N/A   Unknown
12:00 PM 67 °F - 46 °F 35% 29.80 in - NE 5.8 mph - -  
12:00 PM 68.0 °F - 46.4 °F 46% 29.80 in 6.2 mi NE 5.8 mph - N/A   Unknown
12:30 PM 68.0 °F - 44.6 °F 43% 29.77 in 6.2 mi ENE 6.9 mph - N/A   Unknown
1:00 PM 68.0 °F - 46.4 °F 46% 29.74 in 6.2 mi NNE 5.8 mph - N/A   Unknown
1:30 PM 68.0 °F - 44.6 °F 43% 29.74 in 6.2 mi NNE 6.9 mph - N/A   Unknown
2:00 PM 68.0 °F - 44.6 °F 43% 29.74 in 6.2 mi NNE 6.9 mph - N/A   Unknown
2:30 PM 68.0 °F - 42.8 °F 40% 29.74 in 6.2 mi NNE 6.9 mph - N/A   Unknown
3:00 PM 68 °F - 42 °F 28% 29.76 in - NNE 4.6 mph - -  
3:00 PM 68.0 °F - 42.8 °F 40% 29.74 in 6.2 mi NNE 4.6 mph - N/A   Unknown
3:30 PM 68.0 °F - 42.8 °F 40% 29.74 in 6.2 mi WNW 4.6 mph - N/A   Unknown
4:00 PM 66.2 °F - 44.6 °F 46% 29.74 in 6.2 mi South 6.9 mph - N/A   Unknown
4:30 PM 62.6 °F - 44.6 °F 52% 29.77 in 6.2 mi SE 4.6 mph - N/A   Unknown
5:00 PM 59.0 °F - 46.4 °F 63% 29.77 in 6.2 mi South 3.5 mph - N/A   Unknown
5:30 PM 55.4 °F - 48.2 °F 77% 29.77 in 6.2 mi WSW 5.8 mph - N/A   Unknown
6:00 PM 54 °F - 48 °F 73% 29.81 in - WSW 3.5 mph - -  
6:00 PM 55.4 °F - 48.2 °F 77% 29.80 in 6.2 mi WSW 3.5 mph - N/A   Unknown
6:30 PM 53.6 °F - 48.2 °F 82% 29.80 in 6.2 mi SW 6.9 mph - N/A   Unknown
7:00 PM 51.8 °F - 46.4 °F 82% 29.80 in 6.2 mi SSW 2.3 mph - N/A   Unknown
7:30 PM 51.8 °F - 46.4 °F 82% 29.83 in 6.2 mi WSW 1.2 mph - N/A   Unknown
8:00 PM 50.0 °F - 46.4 °F 87% 29.83 in 6.2 mi WSW 3.5 mph - N/A   Unknown
8:30 PM 48.2 °F - 44.6 °F 87% 29.83 in 6.2 mi SW 1.2 mph - N/A   Unknown
9:00 PM 48 °F - 45 °F 85% 29.85 in - WSW 4.6 mph - -  
9:00 PM 48.2 °F - 44.6 °F 87% 29.83 in 6.2 mi WSW 4.6 mph - N/A   Unknown
9:30 PM 48.2 °F - 46.4 °F 93% 29.83 in 6.2 mi SW 6.9 mph - N/A   Unknown
10:00 PM 46.4 °F 42.9 °F 42.8 °F 87% 29.83 in 6.2 mi SW 6.9 mph - N/A   Unknown
10:30 PM 46.4 °F - 44.6 °F 93% 29.83 in 6.2 mi SW 1.2 mph - N/A   Unknown
11:00 PM 46.4 °F 43.5 °F 44.6 °F 93% 29.83 in 6.2 mi WSW 5.8 mph - N/A   Unknown
11:30 PM 44.6 °F 41.4 °F 42.8 °F 93% 29.83 in 6.2 mi WSW 5.8 mph - N/A   Unknown